Location: D?uga
(50.2667°N, 19.7833°E)
Time: 00:40:46
(UTC+00:00)

USA 267 - Pass Details

Date: 23 May 2024
Orbit: 1100 x 1107 km, 123.0° (Epoch: 21 May)

Event Time Altitude Azimuth Distance (km) Brightness Sun altitude
Rises 01:56:03 0° 76° (ENE) 3,920 7.3 -6.7°
Reaches altitude 10° 01:58:36 10° 72° (ENE) 2,961 6.7 -6.4°
Maximum altitude 02:04:50 50° 360° (N) 1,383 4.2 -5.7°
Drops below altitude 10° 02:11:04 10° 287° (WNW) 2,961 5.2 -4.9°
Sets 02:13:37 0° 283° (WNW) 3,919 5.8 -4.6°
